Tokyo, Japan

10:08 PM JST on December 10, 2018 (GMT +0900)
Tokyo (Haneda) International

Weather History for RJTT - August, 2018

Change the Weather History Date:

Saturday, August 11, 2018

  Actual Average Record
Temperature  
Mean Temperature 84 °F -  
Max Temperature 91 °F 82 °F 98 °F (2013)
Min Temperature 78 °F 71 °F 73 °F (2001)
Cooling Degree Days 20    
Growing Degree Days 34 (Base 50)    
Moisture  
Dew Point 78 °F    
Average Humidity 81    
Maximum Humidity 94    
Minimum Humidity 66    
Precipitation  
Precipitation 0.00 in - - ()
Sea Level Pressure  
Sea Level Pressure 29.64 in    
Wind  
Wind Speed 11 mph ()    
Max Wind Speed 20 mph    
Max Gust Speed -    
Visibility 6.2 miles    
Events Rain    
Averages and records for this station are not official NWS values.
T = Trace of Precipitation, MM = Missing Value Source: Averaged Metar Reports

Daily Weather History Graph

Daily Weather History Graph

Search for Another Location

Airport or City:

Astronomy

Aug. 11, 2018 Rise Set
Actual Time 4:56 AM JST 6:35 PM JST
Civil Twilight 4:29 AM JST 7:02 PM JST
Nautical Twilight 3:56 AM JST 7:35 PM JST
Astronomical Twilight 3:21 AM JST 8:10 PM JST
Moon 4:18 AM JST (8/11) 6:34 PM JST (8/11)
Length of Visible Light 14h 33m
Length of Day
13h 38m
Waning Crescent, 0% of the Moon is Illuminated
Aug 11
Waning Crescent
Aug 11
New
Aug 18
First Quarter
Aug 26
Full
Sep 3
Last Quarter

Hourly Weather History & Observations

Time (JST) Temp. Heat Index Dew Point Humidity Pressure Visibility Wind Dir Wind Speed Gust Speed Precip Events Conditions
12:00 AM 84.2 °F 92.3 °F 75.2 °F 74% 29.59 in 6.2 mi SW 16.1 mph - N/A   Partly Cloudy
12:30 AM 84.2 °F 92.3 °F 75.2 °F 74% 29.59 in 6.2 mi SW 16.1 mph - N/A   Mostly Cloudy
1:00 AM 84.2 °F 92.3 °F 75.2 °F 74% 29.59 in 6.2 mi WSW 12.7 mph - N/A   Mostly Cloudy
1:30 AM 82.4 °F 89.5 °F 75.2 °F 79% 29.59 in 6.2 mi West 11.5 mph - N/A   Mostly Cloudy
2:00 AM 82.4 °F 90.9 °F 77.0 °F 84% 29.59 in 6.2 mi West 10.4 mph - N/A   Mostly Cloudy
2:30 AM 82.4 °F 90.9 °F 77.0 °F 84% 29.59 in 6.2 mi West 8.1 mph - N/A   Mostly Cloudy
3:00 AM 82.4 °F 90.9 °F 77.0 °F 84% 29.59 in 6.2 mi West 5.8 mph - N/A   Mostly Cloudy
3:30 AM 80.6 °F 86.2 °F 75.2 °F 84% 29.62 in 6.2 mi North 6.9 mph - N/A   Mostly Cloudy
4:00 AM 80.6 °F 87.1 °F 77.0 °F 89% 29.62 in 6.2 mi North 5.8 mph - N/A   Mostly Cloudy
4:30 AM 80.6 °F 86.2 °F 75.2 °F 84% 29.62 in 6.2 mi North 5.8 mph - N/A Rain Light Rain Showers
5:00 AM 78.8 °F - 77.0 °F 94% 29.62 in 6.2 mi East 4.6 mph - N/A   Mostly Cloudy
5:30 AM 78.8 °F - 77.0 °F 94% 29.62 in 6.2 mi ESE 2.3 mph - N/A   Scattered Clouds
6:00 AM 80.6 °F 87.1 °F 77.0 °F 89% 29.62 in 6.2 mi SSE 4.6 mph - N/A   Partly Cloudy
6:30 AM 82.4 °F 90.9 °F 77.0 °F 84% 29.62 in 6.2 mi SE 6.9 mph - N/A   Partly Cloudy
7:00 AM 84.2 °F 94.1 °F 77.0 °F 79% 29.65 in 6.2 mi SE 5.8 mph - N/A   Partly Cloudy
7:30 AM 82.4 °F 90.9 °F 77.0 °F 84% 29.65 in 6.2 mi SE 9.2 mph - N/A   Partly Cloudy
8:00 AM 84.2 °F 94.1 °F 77.0 °F 79% 29.65 in 6.2 mi SE 8.1 mph - N/A   Partly Cloudy
8:30 AM 82.4 °F 92.4 °F 78.8 °F 89% 29.65 in 6.2 mi ESE 8.1 mph - N/A   Partly Cloudy
9:00 AM 84.2 °F 96.1 °F 78.8 °F 84% 29.65 in 6.2 mi East 9.2 mph - N/A   Partly Cloudy
9:30 AM 84.2 °F 96.1 °F 78.8 °F 84% 29.65 in 6.2 mi East 8.1 mph - N/A   Partly Cloudy
10:00 AM 84.2 °F 96.1 °F 78.8 °F 84% 29.65 in 6.2 mi East 8.1 mph - N/A   Scattered Clouds
10:30 AM 86.0 °F 99.3 °F 78.8 °F 79% 29.65 in 6.2 mi ESE 9.2 mph - N/A   Partly Cloudy
10:38 AM 89.6 °F 104.7 °F 78.8 °F 70% 29.65 in 6.2 mi SE 10.4 mph - N/A   Partly Cloudy
11:00 AM 91.4 °F 107.2 °F 78.8 °F 66% 29.65 in 6.2 mi SSE 13.8 mph - N/A   Partly Cloudy
11:30 AM 87.8 °F 99.7 °F 77.0 °F 70% 29.65 in 6.2 mi SSE 17.3 mph - N/A   Mostly Cloudy
11:35 AM 91.4 °F 107.2 °F 78.8 °F 66% 29.65 in 6.2 mi South 17.3 mph - N/A   Scattered Clouds
12:00 PM 89.6 °F 104.7 °F 78.8 °F 70% 29.65 in 6.2 mi SSE 17.3 mph - N/A   Partly Cloudy
12:30 PM 89.6 °F 104.7 °F 78.8 °F 70% 29.62 in 6.2 mi South 17.3 mph - N/A   Partly Cloudy
1:00 PM 89.6 °F 104.7 °F 78.8 °F 70% 29.65 in 6.2 mi South 17.3 mph - N/A   Partly Cloudy
1:30 PM 87.8 °F 104.9 °F 80.6 °F 79% 29.62 in 6.2 mi South 19.6 mph - N/A   Scattered Clouds
2:00 PM 87.8 °F 102.5 °F 78.8 °F 75% 29.62 in 6.2 mi South 18.4 mph - N/A   Partly Cloudy
2:30 PM 87.8 °F 104.9 °F 80.6 °F 79% 29.62 in 6.2 mi South 17.3 mph - N/A   Partly Cloudy
3:00 PM 87.8 °F 102.5 °F 78.8 °F 75% 29.62 in 6.2 mi South 18.4 mph - N/A   Partly Cloudy
3:30 PM 86.0 °F 99.3 °F 78.8 °F 79% 29.62 in 6.2 mi South 19.6 mph - N/A   Partly Cloudy
4:00 PM 86.0 °F 99.3 °F 78.8 °F 79% 29.65 in 6.2 mi South 17.3 mph - N/A   Scattered Clouds
4:30 PM 86.0 °F 99.3 °F 78.8 °F 79% 29.62 in 6.2 mi South 15.0 mph - N/A   Scattered Clouds
5:00 PM 84.2 °F 96.1 °F 78.8 °F 84% 29.65 in 6.2 mi South 17.3 mph - N/A   Scattered Clouds
5:30 PM 84.2 °F 96.1 °F 78.8 °F 84% 29.65 in 6.2 mi South 16.1 mph - N/A   Scattered Clouds
6:00 PM 84.2 °F 96.1 °F 78.8 °F 84% 29.65 in 6.2 mi South 15.0 mph - N/A   Scattered Clouds
6:30 PM 82.4 °F 92.4 °F 78.8 °F 89% 29.65 in 6.2 mi South 15.0 mph - N/A   Partly Cloudy
7:00 PM 82.4 °F 92.4 °F 78.8 °F 89% 29.65 in 6.2 mi South 16.1 mph - N/A   Partly Cloudy
7:30 PM 84.2 °F 94.1 °F 77.0 °F 79% 29.68 in 6.2 mi South 13.8 mph - N/A   Partly Cloudy
8:00 PM 82.4 °F 90.9 °F 77.0 °F 84% 29.68 in 6.2 mi South 11.5 mph - N/A   Partly Cloudy
8:30 PM 84.2 °F 94.1 °F 77.0 °F 79% 29.68 in 6.2 mi SSW 11.5 mph - N/A   Partly Cloudy
9:00 PM 84.2 °F 94.1 °F 77.0 °F 79% 29.71 in 6.2 mi South 11.5 mph - N/A   Partly Cloudy
9:30 PM 82.4 °F 90.9 °F 77.0 °F 84% 29.71 in 6.2 mi South 8.1 mph - N/A   Partly Cloudy
10:00 PM 82.4 °F 90.9 °F 77.0 °F 84% 29.71 in 6.2 mi South 8.1 mph - N/A   Partly Cloudy
10:30 PM 82.4 °F 90.9 °F 77.0 °F 84% 29.71 in 6.2 mi South 8.1 mph - N/A   Scattered Clouds
11:00 PM 82.4 °F 90.9 °F 77.0 °F 84% 29.71 in 6.2 mi South 6.9 mph - N/A   Mostly Cloudy
11:30 PM 84.2 °F 96.1 °F 78.8 °F 84% 29.74 in 6.2 mi SW 5.8 mph - N/A   Scattered Clouds